Theta_e
311 312 312 311 312 311 311 311 311 311 311 311 309 307 309 311 308 307 305 302 301 299 298 298 297 297 296 297 295 295 295 295 296 295 294 293 292 292 291 290 289 290 290 289 289 290 290 289 290 291 292 292 292 293 293 292 292 293 293 292 291 292 291 290 288 288 291 294 293 292 294 294 293 294 293 294 295 296 298 297 298 298 300 303 305
311 311 312 312 311 311 311 312 311 311 311 308 309 308 308 308 307 304 301 300 299 297 297 297 296 296 295 295 294 294 294 294 294 294 292 291 291 291 290 289 289 289 289 288 289 289 289 289 290 291 292 291 291 291 291 291 291 291 291 291 290 291 292 289 288 288 287 290 291 292 292 293 291 294 293 293 293 295 294 294 295 297 298 301 302
312 312 312 311 312 312 313 312 312 311 308 307 307 307 307 307 305 301 300 299 298 297 296 295 295 294 294 293 293 293 293 293 292 292 291 290 289 289 289 289 288 288 288 288 288 289 289 289 289 290 291 290 290 290 291 290 291 290 290 290 290 290 290 290 288 286 286 287 290 289 290 291 291 291 292 293 294 294 293 293 294 296 297 297 298
312 312 311 312 314 314 314 314 311 307 307 307 307 307 307 305 303 300 299 298 296 296 295 294 294 293 293 292 292 292 292 292 291 290 290 289 289 289 289 289 288 288 288 288 289 288 288 288 289 290 289 289 289 290 290 290 289 289 289 289 289 289 289 289 289 287 286 285 287 288 289 289 290 291 292 293 292 292 293 293 294 293 294 295 295
312 311 311 312 313 313 312 309 307 307 307 307 306 307 306 304 301 299 298 297 296 295 295 294 293 293 292 292 291 292 292 291 289 289 290 290 289 289 288 288 288 288 288 288 290 288 288 288 288 290 289 288 289 289 289 288 288 289 288 289 289 289 289 289 289 288 287 286 287 289 290 289 290 291 291 290 291 292 292 292 292 292 293 295 297
312 311 312 312 313 313 310 307 307 306 306 306 306 305 304 301 299 298 296 295 295 294 294 294 293 292 292 292 292 292 292 291 289 288 289 289 289 289 289 288 288 288 288 288 288 288 288 288 289 290 289 288 288 288 288 288 288 288 288 288 288 288 288 288 289 288 288 287 287 287 289 289 288 289 291 291 290 289 290 291 292 292 293 293 294
313 313 313 312 312 311 308 307 307 307 306 305 305 303 301 299 298 296 296 294 294 293 293 293 293 292 292 292 292 292 292 292 290 288 288 288 288 288 288 288 288 288 288 288 288 288 288 288 288 289 290 289 289 288 288 288 288 288 288 288 288 288 288 288 288 287 287 287 287 288 288 289 289 288 290 291 290 290 288 288 288 291 292 292 292
313 313 312 310 309 308 307 307 306 305 305 304 303 301 299 297 296 295 294 293 292 292 291 291 291 291 291 292 292 292 291 292 292 290 288 288 288 288 288 288 287 287 288 288 288 288 288 288 288 289 290 290 290 289 288 288 288 287 288 288 288 287 287 287 287 287 286 286 286 286 287 287 288 290 291 290 289 289 290 289 287 288 289 291 292
311 310 309 308 307 307 306 306 305 304 303 302 300 298 297 296 295 295 294 293 293 291 291 291 290 290 290 291 291 291 291 291 292 292 290 288 288 288 288 287 287 287 287 287 287 287 287 288 288 290 292 292 293 292 291 291 288 287 287 288 288 287 286 286 286 286 286 286 285 287 286 286 287 287 287 287 287 287 289 290 288 289 290 290 291
310 308 307 306 306 306 305 304 302 302 302 300 298 297 295 295 294 293 293 292 292 292 291 291 290 289 289 289 290 291 291 292 292 292 292 291 288 287 288 288 287 287 286 286 286 287 287 287 288 292 291 291 291 290 289 290 291 290 288 288 287 286 286 285 285 285 285 285 285 285 285 285 286 287 287 288 289 290 289 289 287 288 289 288 290
308 307 306 305 304 303 302 301 301 300 300 299 297 296 295 294 293 293 292 292 291 291 290 289 289 289 289 289 289 290 290 291 291 290 289 291 290 288 287 287 287 286 286 286 285 286 286 287 288 290 289 289 289 289 289 289 289 290 290 291 290 287 285 284 285 286 285 285 285 286 286 285 287 288 288 289 290 289 289 289 289 288 287 286 285
306 305 305 304 302 301 301 300 299 299 299 298 297 295 295 294 293 292 291 291 291 290 290 289 289 289 289 289 289 289 290 291 290 290 289 289 290 288 287 286 287 286 286 286 285 285 285 286 287 288 287 287 287 287 288 289 289 289 289 289 288 288 288 286 285 285 285 285 285 286 286 287 287 289 289 289 289 289 290 289 289 288 288 287 287
305 304 303 302 301 300 299 298 298 298 298 298 297 295 294 293 292 291 291 291 290 289 288 288 288 288 288 288 288 289 289 290 290 290 289 289 288 288 286 286 287 286 286 286 286 285 285 286 287 287 286 289 288 287 286 287 289 289 289 288 287 287 286 286 288 288 288 286 286 286 287 288 288 289 290 290 291 289 289 289 289 289 289 288 288
304 303 302 300 299 298 298 297 296 297 297 297 296 295 293 292 292 292 291 290 289 289 289 288 288 288 288 287 288 289 289 290 289 290 289 289 288 287 286 286 286 286 286 286 286 285 285 285 286 285 286 285 286 286 286 286 286 285 285 285 284 285 286 287 288 288 289 288 287 286 289 290 289 290 292 292 290 289 289 289 289 289 289 289 291
302 301 300 299 298 297 296 296 295 296 296 296 295 294 293 293 292 291 290 290 289 289 288 288 289 289 288 288 288 288 289 289 289 289 290 289 288 287 286 286 286 286 286 286 286 285 285 286 286 285 285 285 286 287 286 286 285 284 283 283 283 284 284 285 286 286 287 288 288 289 290 290 290 290 291 293 292 292 292 290 291 291 291 292 292
300 300 299 298 297 296 295 295 295 294 294 294 294 293 293 292 291 292 291 290 291 290 290 289 288 287 287 287 287 287 289 289 289 289 289 289 288 286 286 285 285 285 285 285 285 285 285 286 286 285 285 285 287 287 287 286 284 282 282 282 282 283 284 287 287 287 289 288 289 289 290 290 291 291 292 292 292 292 293 293 292 291 289 288 287
299 300 298 297 297 295 295 294 293 293 293 293 292 292 291 291 292 293 290 290 289 289 289 289 289 288 288 287 286 286 287 289 289 289 289 290 288 285 286 285 285 285 285 285 285 285 285 286 286 285 285 285 287 285 285 287 283 282 281 281 281 282 282 284 286 287 288 289 289 290 290 290 290 290 290 291 291 292 291 290 289 290 288 286 287
299 299 298 297 296 294 294 294 293 293 292 291 291 290 291 291 291 292 290 289 289 289 290 289 290 290 288 287 287 285 285 289 289 289 289 289 288 285 285 285 285 285 284 285 285 284 285 288 288 285 284 284 285 285 285 286 283 282 281 280 280 280 281 283 284 286 288 288 288 289 290 290 290 290 290 290 289 292 290 287 290 290 288 288 287
299 298 298 296 295 294 294 293 292 292 291 290 290 290 290 291 292 290 289 289 289 290 290 287 287 287 288 289 290 286 285 288 289 289 288 288 288 286 285 284 284 284 283 284 284 283 283 285 287 286 285 285 285 284 284 285 283 282 281 280 279 279 280 282 283 283 284 285 287 289 289 290 290 289 291 290 290 293 291 290 291 290 288 289 288
299 299 298 296 294 294 294 294 292 291 290 290 290 290 291 289 288 288 289 289 289 288 288 286 285 285 286 284 285 286 286 286 289 288 288 288 288 287 285 284 283 283 283 284 282 282 283 283 284 285 284 284 284 284 283 284 282 282 281 280 279 278 281 282 284 284 283 284 285 287 287 288 288 288 289 289 290 293 291 291 292 292 290 289 289
299 298 297 295 294 293 292 292 291 291 290 290 291 291 289 288 288 287 287 287 286 286 285 286 285 284 285 285 285 285 288 287 288 288 288 287 287 287 285 285 284 283 282 283 282 281 281 282 283 285 284 283 283 283 283 283 283 282 281 280 280 281 283 282 282 285 282 284 285 286 286 287 287 287 288 288 289 290 290 290 291 294 292 291 290
299 297 295 293 293 292 291 291 291 291 291 291 288 287 288 288 287 287 286 285 285 285 286 286 284 284 283 284 286 284 287 289 288 288 287 287 287 287 286 285 285 284 282 282 282 281 282 282 282 284 283 283 283 283 282 282 282 282 281 282 282 281 281 282 282 281 281 282 283 284 284 285 285 285 286 287 288 289 289 288 290 292 296 295 293
298 296 294 292 292 291 291 291 291 291 290 289 288 287 287 287 286 286 285 284 284 283 283 283 283 283 283 283 283 284 284 286 288 288 287 287 287 286 286 285 285 285 282 281 281 281 282 283 283 285 283 282 282 282 281 281 282 280 281 281 281 281 281 281 281 280 280 281 281 282 282 283 283 283 285 285 286 287 288 288 290 291 293 295 296
297 295 294 291 290 291 291 291 291 290 290 288 288 286 285 285 286 286 285 285 283 283 283 283 282 282 282 283 284 284 284 283 286 287 288 287 286 286 286 285 285 284 283 282 282 282 282 282 282 282 282 282 281 281 280 281 280 280 280 281 280 280 280 279 279 279 280 279 279 279 280 282 282 282 283 285 287 288 288 289 289 291 291 293 294
296 293 291 290 290 290 290 289 289 289 288 288 287 286 286 286 285 284 285 284 283 283 283 284 283 284 284 283 283 283 283 283 283 286 288 287 286 286 286 285 284 284 283 283 283 282 282 283 282 282 281 281 281 280 280 280 280 279 279 280 281 278 278 278 278 278 278 278 278 279 279 281 282 282 284 285 287 289 289 290 291 291 291 292 293
295 292 291 290 289 289 288 288 288 288 288 287 287 287 286 287 286 284 284 284 284 283 284 284 284 283 283 282 283 283 284 282 283 283 287 287 285 285 285 285 284 284 284 282 282 282 282 282 282 281 281 281 280 279 278 278 279 279 279 279 277 277 278 277 277 277 276 277 278 278 279 280 281 282 284 284 285 286 288 288 288 289 289 290 290
295 293 291 290 289 288 288 287 287 287 287 287 288 288 287 286 286 287 285 284 284 285 285 285 285 285 284 283 283 284 283 283 283 284 284 285 284 284 284 284 284 283 283 282 282 281 281 281 280 280 280 280 279 279 278 278 278 277 276 276 277 277 278 277 277 276 277 277 277 278 279 280 281 282 282 282 283 284 286 288 287 288 288 289 288
294 292 290 289 289 288 288 291 289 286 287 287 286 286 286 286 286 286 284 284 284 285 285 285 285 285 283 283 283 283 283 283 284 285 286 285 284 283 284 284 282 282 282 281 281 281 280 281 280 280 279 278 278 278 277 277 276 276 275 276 276 277 278 279 279 277 277 277 277 278 279 279 279 279 280 281 282 283 284 286 286 286 287 287 286
294 291 290 289 288 290 290 290 287 286 286 286 286 286 286 286 286 285 285 284 285 285 284 284 285 283 283 283 284 283 284 284 285 288 287 286 285 284 284 283 283 282 282 282 281 280 280 279 278 278 277 277 276 276 276 275 275 275 275 275 275 275 276 275 275 275 276 277 276 276 277 277 278 279 279 279 281 282 283 284 285 285 286 287 285
292 290 290 289 289 290 289 287 287 287 286 286 286 287 289 288 286 285 285 289 288 287 286 285 285 283 283 283 284 284 284 285 288 288 286 285 285 285 284 283 283 282 282 281 281 279 278 277 277 276 276 275 275 275 275 274 274 274 274 275 275 274 275 275 275 275 276 276 276 276 276 276 276 277 277 278 279 281 283 284 283 285 284 284 284
292 290 290 289 290 290 288 286 286 286 286 286 286 286 285 287 288 288 289 290 288 288 288 288 287 285 287 283 285 286 286 288 288 287 285 285 284 284 283 283 282 282 282 281 278 278 277 276 276 276 276 275 275 275 275 274 274 273 273 273 274 274 274 274 274 275 275 275 275 276 276 275 275 276 276 277 278 280 281 283 283 284 283 284 284
292 290 290 290 290 289 287 287 287 286 285 286 286 286 285 284 285 287 288 288 288 288 287 287 288 287 288 288 288 285 287 288 288 286 285 284 284 284 283 283 282 282 281 280 277 277 277 277 276 276 276 275 275 275 274 274 274 273 273 272 272 273 273 273 274 274 275 274 274 275 275 275 275 275 276 277 278 278 280 281 281 282 283 284 284
292 291 290 291 290 289 288 287 287 286 285 285 285 285 284 284 283 283 285 287 287 287 288 288 288 288 288 288 289 288 287 288 288 286 284 284 283 283 283 282 282 282 281 278 276 276 277 277 276 276 275 275 274 274 274 274 273 273 273 272 272 272 272 273 274 274 274 274 274 274 274 274 275 275 275 276 276 276 278 279 280 281 282 282 283
292 291 291 290 289 288 288 287 287 286 286 286 285 284 284 284 283 283 283 283 284 286 287 287 288 288 288 289 288 288 288 288 287 285 284 283 283 283 282 281 281 281 280 278 277 277 277 277 276 275 275 275 274 274 273 273 273 273 273 273 272 272 272 273 273 273 273 273 273 274 274 274 274 273 274 274 276 276 277 278 279 280 281 281 282
292 290 290 290 289 289 288 287 287 286 285 285 285 285 284 284 284 283 282 282 282 282 283 285 287 288 287 287 288 288 288 287 286 285 284 283 283 282 281 279 277 278 279 278 278 277 277 276 276 275 275 274 274 274 273 273 274 273 273 272 272 272 272 272 272 272 272 272 273 272 273 273 273 273 274 274 274 275 276 277 278 279 280 281 282
291 291 291 290 290 289 288 288 287 286 286 285 285 285 284 284 284 284 283 283 283 283 283 283 284 285 287 288 288 288 288 287 285 284 283 283 282 282 278 278 278 278 277 278 278 277 277 277 276 276 275 274 274 274 274 274 274 273 273 272 272 271 272 272 272 271 272 272 272 272 272 272 273 273 273 274 274 275 276 277 278 279 280 281 282
291 290 290 290 289 289 288 288 287 287 284 286 285 284 284 284 284 284 283 283 283 283 283 283 283 284 284 283 287 288 287 286 285 284 283 282 281 281 279 279 278 278 277 277 277 277 277 276 276 276 275 274 274 274 274 274 274 273 273 272 272 271 271 271 271 270 270 271 271 271 271 272 272 272 272 272 273 274 276 277 278 279 281 281 282
291 290 290 290 289 288 288 287 287 284 286 285 285 284 284 284 284 283 283 283 283 282 282 282 284 283 283 282 289 287 286 285 284 282 282 281 280 279 279 278 277 277 277 277 277 277 277 276 276 274 274 275 274 274 274 274 274 273 273 272 272 271 272 270 270 270 270 271 270 270 270 271 271 272 272 272 272 274 275 277 278 278 280 281 282
291 288 288 287 287 288 288 287 286 286 286 285 285 284 283 283 283 283 283 282 282 282 281 282 283 283 283 282 286 285 284 281 280 279 279 279 279 279 278 278 278 277 277 277 277 277 276 276 276 275 275 275 274 274 274 274 273 273 272 272 271 271 270 270 270 270 270 270 269 270 270 270 271 271 272 272 273 274 275 276 278 278 279 280 281
291 289 287 286 288 288 287 287 286 286 286 285 284 284 284 283 283 283 283 282 282 282 282 282 282 283 283 281 282 283 281 280 280 280 279 279 278 278 278 278 278 277 277 277 277 277 276 276 276 275 274 274 274 274 274 274 273 272 272 271 270 269 269 270 269 269 269 269 269 269 269 270 270 271 272 272 273 274 275 276 277 278 279 281 282
291 289 286 286 286 287 286 287 286 287 286 286 285 284 284 284 284 283 283 283 283 282 282 282 283 284 283 282 284 283 282 281 280 279 279 278 278 278 278 278 278 278 278 277 277 277 276 276 274 275 275 274 274 274 274 274 273 272 272 271 270 269 269 269 269 269 269 269 269 269 269 269 270 270 270 272 274 275 276 277 278 279 280 281 282
290 288 288 288 287 287 287 286 286 286 285 286 285 285 284 284 284 283 283 283 282 282 282 282 283 283 283 284 285 285 282 281 280 279 279 279 279 278 278 278 278 278 278 278 278 278 277 275 275 275 275 274 274 274 274 273 273 272 271 270 270 269 268 268 268 269 269 268 269 269 269 269 270 270 271 273 273 275 276 277 278 279 280 281 282
290 289 288 288 288 287 287 287 287 286 286 285 285 283 284 284 284 283 283 283 283 282 282 282 282 282 282 281 284 283 283 281 278 279 279 279 279 278 278 279 279 279 279 278 278 277 277 275 275 275 275 275 275 274 273 273 272 272 271 270 269 268 268 268 268 268 268 268 269 269 269 269 269 270 271 272 274 275 276 277 278 278 279 280 281
290 289 288 288 288 288 288 287 286 286 286 285 284 284 284 284 284 283 283 283 282 282 283 283 283 282 282 281 282 282 281 280 280 279 279 279 279 278 279 279 279 279 279 278 278 277 275 275 274 275 275 275 275 275 274 273 273 272 271 270 269 268 268 268 268 268 268 268 269 269 269 269 269 270 271 273 275 275 275 276 277 278 279 280 281
290 289 288 288 287 287 287 287 287 286 285 284 284 284 283 283 283 283 283 283 282 282 283 282 282 282 282 282 283 282 281 280 279 278 278 279 279 279 279 279 278 278 278 278 277 276 275 275 275 275 274 275 275 274 274 273 273 272 271 270 270 268 268 269 269 269 270 269 269 269 269 269 270 271 272 274 275 275 275 276 277 278 278 279 279
290 289 288 288 287 287 287 286 286 286 285 285 285 284 284 283 284 283 283 283 282 282 282 282 282 282 282 282 282 281 281 280 280 279 279 279 279 279 279 278 278 278 278 278 276 275 274 275 274 274 274 275 274 274 274 273 272 272 272 271 271 270 270 270 270 270 270 270 269 269 269 269 271 272 273 274 275 275 276 276 277 278 278 278 279
290 289 288 288 288 287 287 286 286 286 286 285 285 285 284 284 284 283 282 283 282 282 282 282 282 282 282 282 282 281 281 280 280 279 279 279 279 279 279 278 278 278 278 276 275 275 274 274 276 275 275 274 274 273 273 273 272 272 271 271 271 270 270 270 270 270 270 270 271 271 271 271 272 273 273 274 275 275 275 276 276 277 278 278 278
291 290 289 288 288 287 287 286 286 284 285 285 285 285 284 284 283 283 283 283 282 282 282 282 282 282 282 282 281 281 280 280 280 279 279 279 279 279 278 278 278 278 278 276 275 275 275 276 276 275 274 274 273 273 273 272 272 272 271 271 270 269 269 269 270 271 271 271 271 272 272 273 273 274 274 274 275 275 275 275 276 277 277 277 278
291 290 289 288 288 288 287 286 286 286 285 285 285 285 284 284 284 283 283 283 283 283 283 283 282 282 282 282 281 281 280 280 280 279 279 279 279 278 278 278 278 278 278 277 277 276 276 276 275 274 274 274 273 273 272 272 271 271 271 271 270 268 268 268 269 270 269 271 272 272 273 274 274 274 274 274 275 275 275 276 276 276 277 277 277
291 290 290 289 288 288 288 287 287 287 286 286 285 285 284 284 284 284 283 283 283 283 283 283 282 282 282 281 280 280 280 280 279 279 279 279 278 278 278 278 278 278 277 277 277 277 276 276 275 275 274 274 273 273 272 272 271 271 270 270 268 268 268 268 268 268 269 271 272 273 273 274 274 275 274 275 275 275 275 275 275 276 276 276 276
290 290 290 289 289 289 288 288 287 287 286 286 285 285 284 284 284 284 283 283 283 283 283 283 283 283 282 282 281 281 280 280 280 280 279 279 278 278 278 277 277 277 277 277 277 277 276 275 275 274 274 273 273 273 272 272 271 270 269 268 268 268 268 268 269 268 267 268 272 273 273 273 274 273 274 274 275 275 274 274 275 275 275 275 276
Wind_Speed
4 5 4 5 5 5 5 3 5 3 4 2 4 2 3 6 7 7 8 8 7 9 9 8 8 8 8 8 8 8 8 8 7 7 8 9 8 8 9 9 9 8 8 9 9 8 8 7 7 8 7 8 7 8 9 9 9 8 8 9 10 10 10 10 13 16 15 9 13 14 14 14 14 12 15 14 14 14 16 15 15 13 13 12 12
5 5 4 4 5 5 4 3 4 4 0 4 3 4 6 8 7 8 10 8 8 8 8 7 8 8 8 8 8 8 8 8 8 8 9 8 8 7 8 8 8 8 7 8 8 6 6 6 8 9 8 9 10 10 9 10 10 10 10 9 9 9 9 11 12 13 18 16 13 14 14 14 15 13 13 16 15 14 16 16 14 13 12 12 12
4 4 4 4 5 5 2 4 3 2 4 3 5 6 8 8 7 9 8 8 8 8 8 8 8 8 9 8 8 8 9 9 8 8 8 9 8 7 7 8 8 8 8 8 8 7 7 8 8 8 8 11 11 10 10 11 11 11 11 10 11 11 11 11 11 14 16 17 14 15 14 14 14 16 16 14 15 14 16 15 15 13 12 13 13
4 3 3 2 2 3 3 1 1 2 4 5 8 8 8 8 8 9 8 8 9 8 9 8 9 9 9 8 8 8 8 8 9 9 9 8 7 7 7 7 6 6 6 7 8 8 8 7 8 8 10 10 11 10 9 11 11 10 11 11 11 12 11 11 11 12 14 16 17 15 15 15 16 15 14 14 15 15 15 14 14 15 15 13 13
4 3 4 5 5 5 1 3 4 5 6 7 9 9 9 9 8 9 8 9 8 8 8 8 9 9 8 8 9 8 8 8 8 7 7 6 6 6 6 5 5 6 6 6 8 7 8 8 8 7 8 9 11 10 10 13 11 11 11 11 11 11 11 11 12 12 14 16 18 16 15 16 15 15 14 15 14 15 15 15 13 14 15 13 12
3 4 5 6 6 3 4 5 6 7 8 8 9 9 9 9 9 8 8 10 9 8 9 8 8 8 8 8 8 8 7 7 7 6 6 5 5 4 5 5 5 5 6 6 6 6 6 8 8 8 9 9 11 12 12 13 12 12 13 12 12 12 12 13 12 12 13 14 15 18 15 15 17 14 15 14 15 15 17 16 15 13 12 12 11
4 5 5 4 3 4 5 6 6 7 7 8 8 9 9 9 9 9 8 9 9 9 8 9 7 7 8 7 8 7 6 5 5 5 5 5 5 5 5 5 5 5 5 6 6 6 7 8 8 9 9 12 13 13 13 13 11 13 13 13 13 13 13 12 12 12 12 12 13 13 16 14 11 16 14 14 15 14 17 17 16 12 11 10 13
5 4 5 4 4 6 6 6 7 8 8 9 10 10 10 9 9 9 9 9 9 8 8 7 7 7 7 7 7 6 5 5 4 4 5 5 5 5 5 6 6 5 6 6 6 7 7 8 8 9 9 11 12 12 12 12 12 12 12 12 13 13 13 12 12 11 11 11 11 13 12 13 13 14 14 13 14 15 12 14 16 15 14 13 12
4 5 5 6 6 7 8 7 7 9 9 10 10 10 10 10 9 8 9 9 8 8 7 6 8 8 7 6 6 5 4 5 5 4 3 5 4 4 5 6 6 7 7 7 7 7 7 7 8 9 12 15 18 15 15 15 12 13 13 13 14 13 13 12 12 12 12 12 13 12 13 13 12 15 14 12 14 15 16 15 17 16 14 15 14
6 6 7 7 7 8 9 8 9 9 10 10 10 10 9 9 9 9 9 9 8 7 6 7 7 7 6 6 5 4 5 5 9 12 9 4 4 4 4 5 5 5 6 7 7 7 8 7 8 14 16 17 17 17 18 19 19 15 14 14 15 14 13 12 12 12 12 13 12 13 15 14 14 13 15 15 12 13 14 13 15 17 15 13 14
6 8 8 8 9 9 9 9 9 10 9 10 10 10 10 8 9 9 8 8 7 7 6 7 6 5 5 5 6 5 6 5 10 8 9 9 5 4 4 5 5 5 5 6 7 8 8 8 7 10 13 14 13 17 18 20 19 19 20 19 17 15 14 14 12 12 13 13 13 14 14 17 17 16 16 15 15 13 11 8 10 12 13 12 14
8 8 9 9 9 10 10 10 10 10 10 10 10 9 9 9 9 9 8 7 7 6 7 6 5 5 4 5 4 5 5 9 7 8 8 9 8 5 4 4 4 5 5 6 6 7 8 8 8 8 9 13 13 12 16 19 19 20 19 18 18 19 18 14 14 13 13 13 13 12 14 14 17 16 15 15 13 12 11 10 11 9 10 10 12
10 10 9 10 10 10 10 10 10 9 9 10 9 9 9 9 9 8 8 7 6 7 6 5 5 4 4 4 4 4 4 9 8 9 9 9 9 6 4 4 5 5 6 6 6 7 8 8 8 9 7 17 13 13 14 15 18 20 19 18 17 17 17 19 18 14 13 14 14 15 13 14 15 14 15 17 15 14 13 10 9 10 8 8 12
10 10 10 10 10 10 10 10 10 9 9 9 9 9 9 8 7 7 7 6 6 6 5 5 4 4 4 3 3 3 4 10 10 11 9 9 9 6 4 4 5 5 6 6 6 7 8 9 9 10 9 11 11 14 15 14 14 13 12 11 11 15 16 17 17 19 17 12 12 15 14 13 12 14 17 16 15 14 11 11 11 10 11 10 10
10 10 10 9 10 10 10 10 10 9 9 9 8 8 9 8 8 6 6 6 6 5 5 5 4 3 2 2 3 4 5 12 10 11 10 9 9 6 4 4 4 5 5 6 7 7 8 8 9 9 11 11 12 18 16 15 13 11 12 13 13 12 11 10 12 13 12 12 11 11 12 14 14 17 16 15 17 13 12 15 12 11 12 10 10
10 10 10 10 10 10 11 10 9 9 9 8 8 8 7 7 8 7 6 6 5 4 4 3 3 2 1 2 3 5 5 11 10 11 11 8 9 5 4 5 5 5 6 6 7 7 8 9 11 11 12 12 18 23 20 16 12 12 13 13 14 13 11 13 17 18 16 15 14 14 14 16 20 17 17 16 16 15 12 9 9 9 8 8 8
10 10 10 10 10 9 10 11 10 9 9 9 8 8 9 8 7 6 7 6 6 5 4 3 2 3 4 4 5 4 4 9 11 12 12 11 7 5 5 5 5 6 6 6 6 8 8 12 12 11 12 12 20 22 22 21 13 13 13 13 12 13 12 13 20 22 23 25 24 22 20 19 20 22 22 25 21 19 11 8 9 7 7 8 9
9 10 10 9 10 9 10 10 11 9 9 9 9 7 7 6 7 6 8 7 6 5 4 3 1 1 3 3 5 5 4 8 12 11 13 13 9 6 5 5 5 7 7 6 7 8 10 19 17 12 13 14 22 22 23 18 14 13 14 16 15 14 14 14 13 14 23 23 22 19 17 18 22 21 22 23 23 20 11 10 9 6 8 8 8
10 10 10 9 9 9 9 10 10 10 9 8 8 9 8 7 6 6 6 5 5 5 4 3 4 4 4 4 7 5 5 6 10 11 12 12 9 5 5 4 6 7 7 7 8 8 9 11 18 16 17 18 22 22 22 19 13 12 14 15 16 16 16 16 15 15 15 15 13 14 14 18 17 15 18 25 23 22 12 12 10 7 8 8 7
9 9 10 9 9 8 8 9 9 10 10 8 7 7 6 7 7 7 6 5 5 5 4 4 5 3 3 4 4 3 4 5 7 11 11 11 12 7 4 6 7 7 7 7 8 8 8 9 12 17 22 21 21 22 21 21 15 11 12 14 15 16 16 14 15 15 15 15 15 16 16 15 13 15 15 14 15 20 16 13 12 6 8 8 6
9 10 9 9 9 9 8 9 10 8 8 9 7 6 6 7 7 7 7 5 6 5 5 4 4 3 3 3 4 5 3 5 5 9 11 11 12 10 4 7 6 6 6 7 6 7 8 9 9 16 21 21 21 21 20 20 19 12 12 13 14 16 17 13 17 21 14 15 14 15 13 14 14 12 14 13 12 14 13 15 13 11 6 6 7
10 10 10 10 9 9 9 8 8 9 8 8 9 7 6 6 6 7 6 6 6 6 4 3 3 3 3 3 3 3 5 7 4 7 10 11 11 12 7 7 8 6 7 6 7 7 7 9 9 16 22 21 20 20 20 19 19 12 15 20 22 22 15 12 12 12 11 12 13 13 13 13 13 14 15 15 13 13 12 11 13 14 8 5 5
10 10 10 10 9 9 9 9 8 7 7 8 9 9 7 7 6 6 7 6 6 6 4 3 3 3 2 3 2 3 3 3 7 6 8 10 10 10 11 9 12 7 6 7 7 7 7 8 10 19 20 20 20 20 18 20 14 15 22 22 22 23 16 11 12 12 12 13 13 12 13 14 15 14 12 16 15 13 11 8 11 12 11 10 11
10 10 9 9 9 8 8 8 8 8 8 8 8 9 8 7 6 6 6 6 6 5 4 3 3 3 2 2 3 3 3 3 4 7 6 9 9 10 10 11 13 9 7 6 7 8 8 9 12 18 18 19 19 18 17 16 14 20 21 22 21 18 12 12 11 12 14 13 13 14 13 14 14 13 13 13 14 13 11 9 10 11 12 10 11
10 9 9 9 9 8 7 7 8 8 8 9 9 8 8 7 7 5 6 5 5 5 4 3 4 3 1 0 2 3 3 3 3 5 7 7 8 10 10 11 13 13 8 7 8 8 11 15 17 17 17 17 18 16 13 14 19 18 20 21 19 11 12 11 11 12 12 14 14 13 13 13 12 13 15 15 14 12 14 13 12 12 13 10 7
10 10 9 8 9 9 9 7 7 7 7 6 7 8 9 8 7 6 5 5 5 5 4 4 4 3 2 1 1 2 3 3 3 3 3 5 6 8 8 10 13 13 11 8 13 14 14 15 17 17 15 15 12 11 11 13 18 18 18 18 11 11 11 11 12 12 13 13 14 13 13 13 13 14 15 13 12 12 13 14 14 14 14 12 12
10 9 10 9 8 8 10 8 7 7 6 5 5 6 6 6 6 6 6 6 5 5 5 4 4 3 3 1 1 2 3 3 3 4 3 4 4 4 4 6 10 9 6 6 8 8 10 11 11 13 12 16 14 13 12 14 12 12 11 11 10 10 10 10 11 11 11 12 13 13 12 12 11 12 13 13 14 14 14 12 11 12 13 12 11
11 10 10 9 8 8 9 10 10 7 7 7 7 6 5 6 7 7 7 7 6 6 6 5 5 5 4 2 1 3 3 3 4 4 3 4 4 4 4 5 5 5 5 6 5 7 7 8 9 7 9 9 9 9 9 10 9 10 11 10 10 10 10 12 10 7 8 10 11 10 11 12 12 14 14 13 13 13 14 14 13 13 13 13 13
9 10 9 9 8 7 8 8 8 8 7 5 5 6 8 8 7 6 5 5 6 8 7 6 5 5 4 3 2 1 2 2 3 2 3 4 4 4 4 5 4 4 7 9 6 6 5 6 7 8 9 10 10 10 10 11 10 10 11 11 11 10 10 10 11 11 11 12 13 13 13 12 13 14 14 13 13 13 13 13 13 13 12 11 11
10 10 9 9 8 8 7 7 7 7 8 7 7 4 2 3 4 6 6 6 5 3 5 5 6 5 4 3 2 1 1 2 3 2 5 4 5 6 6 7 8 7 8 9 7 5 6 6 7 8 9 10 10 11 11 11 11 12 11 12 11 10 11 10 10 11 12 12 13 12 13 12 12 13 13 14 14 14 13 13 13 13 12 12 11
8 8 9 9 10 9 8 8 7 7 7 7 7 7 5 3 1 3 4 5 5 5 5 5 7 6 5 1 2 5 6 5 2 6 4 4 4 4 5 6 8 8 9 6 5 6 6 7 7 7 8 8 9 10 10 10 11 10 11 11 9 11 11 11 11 12 11 12 12 11 11 11 12 12 13 13 13 14 13 12 11 10 11 12 11
10 10 9 8 10 9 8 9 8 8 7 6 7 7 7 6 3 3 3 4 5 5 5 5 6 5 5 3 1 1 0 3 6 5 4 4 3 3 5 7 8 8 9 6 3 4 5 6 6 7 7 8 9 9 9 9 9 9 9 10 11 10 11 11 12 11 11 12 11 11 12 12 12 12 12 12 13 12 12 13 13 12 11 10 9
11 10 9 9 9 9 9 9 8 8 9 8 7 7 8 8 8 6 2 1 2 1 1 2 1 1 1 2 2 4 3 4 6 6 4 4 3 3 4 7 8 9 7 5 2 3 5 5 6 6 6 7 8 8 8 8 9 9 9 9 10 10 10 11 12 10 10 11 10 10 11 12 12 12 11 11 12 12 12 12 12 11 11 12 12
12 11 11 11 11 9 9 9 9 9 8 9 9 9 8 8 8 8 7 5 2 3 3 3 4 4 4 3 2 3 5 6 7 5 4 3 3 4 4 3 5 7 5 3 4 5 5 5 5 4 4 5 6 7 7 8 8 9 9 9 9 9 10 10 9 9 9 11 10 10 11 11 11 12 12 12 11 11 11 11 12 12 13 12 12
9 11 17 14 10 11 10 9 9 9 8 8 8 8 8 7 7 7 8 9 8 7 6 5 5 6 5 2 1 5 7 8 7 6 5 4 4 5 5 3 2 2 3 3 4 4 4 5 5 4 4 5 5 6 6 7 8 9 9 9 9 9 10 9 9 9 11 10 10 10 11 11 11 10 11 12 12 11 11 11 11 11 11 11 11
9 9 10 12 10 9 10 10 9 10 10 9 9 8 7 7 7 7 7 7 7 7 6 6 4 0 1 2 3 6 7 8 7 6 5 4 3 3 1 2 2 3 3 3 3 4 3 4 4 3 3 3 4 5 6 7 8 8 8 9 9 9 9 9 10 9 10 9 9 11 11 11 11 11 11 10 11 11 10 11 12 11 11 11 11
9 9 9 10 9 9 9 9 9 10 9 8 8 7 7 7 6 6 7 7 7 6 6 6 4 3 1 1 3 7 9 8 7 6 5 5 5 3 3 2 1 2 2 2 3 3 3 3 3 2 2 3 4 6 7 7 8 8 8 7 8 8 9 9 9 9 9 9 10 10 11 11 11 11 11 12 12 12 12 11 11 11 11 13 12
10 11 10 10 9 9 9 9 9 10 9 8 7 8 8 7 8 8 8 8 7 7 7 6 4 6 6 5 7 5 6 7 7 4 3 2 2 2 2 1 0 1 2 2 2 2 3 2 2 2 2 2 4 5 6 7 7 7 8 8 7 6 11 9 9 9 9 9 10 10 10 10 11 11 11 10 11 12 13 13 11 12 12 12 10
9 12 15 16 12 11 9 9 9 9 8 8 8 8 9 8 8 7 7 7 7 6 6 6 7 7 7 5 5 6 6 3 4 3 2 1 1 1 1 1 1 1 1 1 2 2 2 2 3 2 2 2 3 5 6 6 6 7 7 7 7 7 8 7 8 9 9 9 9 10 9 9 10 11 11 11 11 11 12 12 12 12 11 11 11
9 8 10 15 10 10 9 10 9 9 9 9 7 8 7 8 8 7 8 8 7 7 7 7 8 8 6 5 6 7 6 6 5 4 3 3 2 2 2 2 2 1 1 1 1 2 2 1 1 2 2 2 3 5 6 6 6 6 6 6 7 7 8 7 8 8 9 9 9 9 9 10 10 10 10 10 11 11 11 11 11 12 11 11 12
9 9 10 12 11 10 8 9 9 10 9 10 9 9 10 9 8 8 7 8 8 8 8 7 8 7 7 9 11 11 7 6 6 4 4 4 3 3 3 3 2 1 1 1 1 1 1 1 1 1 2 2 3 4 5 6 6 6 6 6 5 5 6 7 7 8 9 9 9 10 9 10 10 10 11 11 12 12 11 11 11 10 11 11 12
10 9 10 9 10 10 9 10 9 10 9 9 9 10 9 9 8 8 9 9 9 8 8 7 7 7 8 12 12 14 6 4 4 4 3 3 4 4 3 3 2 2 2 1 1 1 1 1 1 1 1 2 3 5 5 5 6 5 6 5 6 6 7 7 7 8 9 9 9 9 10 10 10 10 10 11 10 11 12 11 11 11 10 11 11
12 10 10 10 10 10 11 10 9 9 9 9 9 8 9 9 8 8 8 8 8 8 8 8 7 6 6 9 10 12 7 6 4 5 4 4 4 4 4 3 3 2 2 1 1 1 1 1 1 1 1 2 3 4 4 5 5 5 5 5 5 6 7 7 7 8 8 9 9 10 10 10 10 9 10 10 11 11 11 12 11 12 11 11 11
11 10 9 11 11 10 9 8 9 10 9 10 9 9 9 8 7 8 8 8 8 8 8 8 7 6 6 6 7 7 6 5 5 5 5 5 4 4 4 3 3 2 2 2 1 1 1 1 1 1 1 1 2 3 3 4 4 4 4 4 4 6 6 7 8 9 9 9 10 10 10 10 10 9 9 11 11 11 11 12 12 13 12 11 11
11 11 10 10 10 10 10 9 9 9 9 8 8 8 8 8 8 8 8 8 8 8 8 7 7 7 7 7 7 7 7 6 6 5 5 5 5 4 4 3 2 3 1 1 1 1 1 1 1 0 1 1 2 3 3 3 3 3 3 4 4 5 6 7 8 9 9 10 9 10 10 9 10 9 10 11 11 11 11 11 11 13 13 12 12
12 11 11 11 11 10 10 9 9 9 9 10 9 9 8 8 8 9 9 8 8 8 8 8 8 8 8 8 7 8 7 6 5 5 5 4 4 4 4 2 2 2 1 1 1 1 1 1 1 1 0 1 2 3 3 3 3 2 2 3 3 4 5 7 8 9 9 9 9 9 9 9 9 9 10 10 10 10 10 11 11 11 11 11 12
12 11 12 11 12 12 11 10 9 9 9 9 9 10 9 10 9 9 9 10 9 8 8 8 8 7 7 8 8 8 7 7 6 6 6 6 5 5 4 3 2 2 2 1 1 1 2 2 1 1 0 1 2 3 3 3 2 2 2 2 3 5 6 8 8 8 8 9 9 9 9 9 10 10 10 11 10 10 11 11 11 12 11 11 11
12 12 12 11 11 10 11 10 11 11 10 10 10 10 10 9 9 9 8 8 9 8 8 8 8 8 8 8 8 8 7 7 6 6 5 5 5 5 4 4 3 3 2 2 2 2 2 2 2 2 1 0 2 2 3 3 2 2 2 2 3 5 9 11 8 8 8 8 8 8 9 9 9 9 9 10 10 10 11 11 11 10 10 11 10
12 12 12 12 12 12 12 12 11 12 12 11 10 10 9 9 10 9 9 9 9 9 9 10 9 8 8 8 8 7 7 7 6 6 5 6 5 4 5 4 4 3 3 2 2 2 2 2 2 2 1 1 1 2 2 3 2 2 2 2 4 10 11 10 9 8 9 7 7 7 7 8 9 9 9 9 10 10 10 10 10 11 10 10 10
12 13 13 13 12 12 11 11 11 11 10 10 10 10 10 10 9 9 9 9 9 8 9 9 8 8 8 8 7 7 7 7 7 6 6 5 5 4 4 4 4 3 3 3 2 2 2 3 3 3 2 1 0 1 1 2 2 2 3 4 8 10 10 10 9 9 8 6 7 6 7 8 8 8 8 9 10 10 11 10 10 9 9 11 11
13 13 13 13 13 11 11 11 11 10 11 11 11 11 11 11 11 10 10 10 10 9 8 7 7 7 7 7 8 8 8 7 7 6 6 6 6 5 5 5 5 4 3 3 2 2 3 3 3 3 2 2 1 0 1 1 2 3 4 6 8 10 10 10 8 10 11 9 6 6 6 7 8 8 8 9 9 9 10 11 11 10 10 9 10
Wind_Direction
212 231 221 229 236 234 234 232 248 256 266 351 54 86 69 85 82 92 80 66 69 70 68 64 60 59 55 50 45 41 36 32 27 30 35 34 34 33 29 30 31 26 24 23 19 16 10 4 360 357 352 351 351 348 351 348 341 336 337 337 332 330 323 317 307 304 303 306 308 309 315 316 308 316 311 309 310 315 318 314 315 310 304 300 303
217 225 219 223 229 242 235 227 244 231 41 68 85 76 83 87 94 83 81 74 73 75 71 68 65 59 57 48 44 39 37 34 28 32 36 37 36 33 29 28 32 27 23 21 11 4 353 354 358 358 355 354 351 350 348 344 342 337 337 333 329 324 322 316 309 304 303 310 313 311 310 315 307 312 309 309 309 310 310 310 308 305 305 309 309
212 207 206 214 233 249 237 223 268 37 78 94 93 89 91 90 92 93 90 87 77 73 71 70 63 60 57 48 41 38 33 34 31 36 38 38 38 34 31 29 28 22 17 12 6 356 358 357 350 348 357 356 352 347 347 346 343 337 332 331 326 322 320 316 311 307 307 305 313 313 317 316 311 311 312 307 306 306 305 306 309 310 310 312 307
208 192 198 167 201 252 271 18 46 89 91 103 95 98 93 91 89 89 89 86 82 75 69 66 63 58 56 48 42 40 34 35 38 37 38 36 36 34 29 28 23 17 12 2 3 359 354 348 345 347 6 354 352 347 347 343 339 333 327 323 318 316 315 312 305 302 304 306 309 314 313 313 312 309 308 306 306 306 307 304 304 305 308 307 300
197 193 158 176 193 211 103 96 103 95 101 103 106 101 99 99 95 93 94 85 81 81 74 65 62 58 54 50 47 41 39 41 41 37 34 31 32 29 24 20 14 11 6 357 359 350 346 340 331 331 2 354 354 349 344 340 335 329 325 322 318 314 310 308 304 300 299 299 305 309 309 308 310 310 309 308 308 304 304 304 303 303 304 302 300
191 167 172 177 204 175 105 107 105 110 114 108 105 104 101 99 97 89 89 91 83 75 73 67 64 62 57 54 51 47 43 48 44 35 28 25 25 25 20 14 8 1 356 351 345 344 335 333 331 326 347 358 351 346 341 336 332 329 327 324 320 314 310 308 306 304 299 296 298 306 310 313 313 312 313 308 306 306 304 304 303 298 299 306 307
179 175 177 180 139 89 105 115 122 118 111 109 102 97 93 90 84 84 83 83 82 77 71 70 64 61 58 55 51 44 40 45 55 37 24 14 17 18 12 8 3 353 354 345 339 336 340 341 332 328 330 352 347 345 342 337 334 329 327 326 322 318 315 313 313 308 303 300 298 293 300 303 306 307 309 308 300 298 301 304 303 303 301 300 304
181 166 141 115 106 108 110 120 111 106 99 95 93 92 93 90 88 88 86 81 78 76 73 72 67 61 54 53 49 45 35 40 50 54 29 18 7 5 359 7 357 352 348 343 344 342 342 337 332 319 329 352 346 344 344 337 334 330 330 326 325 324 321 319 314 310 306 304 301 301 296 299 301 298 300 302 302 298 299 300 300 302 304 302 298
142 129 117 116 119 120 112 104 101 99 99 98 98 99 96 96 95 91 88 88 82 78 74 73 71 64 55 49 42 32 32 28 34 47 78 25 3 357 358 358 354 349 346 346 344 341 339 335 324 330 354 348 347 347 344 341 337 333 331 329 328 326 322 318 315 313 310 306 303 299 297 296 294 296 297 298 294 291 297 299 294 293 294 297 298
137 126 120 122 121 115 110 106 103 102 99 98 99 98 97 97 96 92 89 87 86 81 78 70 68 64 62 50 42 32 36 35 33 28 25 42 13 359 352 353 348 341 344 343 342 344 342 334 329 346 356 349 348 348 345 342 339 333 329 331 331 327 323 319 317 314 311 310 307 307 303 298 295 291 290 286 278 280 283 284 288 293 295 291 291
130 123 120 125 119 114 110 106 103 99 102 103 104 104 102 102 99 97 92 88 86 87 77 72 64 60 59 56 47 42 40 37 32 26 23 23 32 6 354 342 340 343 344 345 343 344 341 340 337 351 351 344 348 348 344 342 338 334 330 330 330 329 324 321 314 312 313 312 309 306 301 299 297 293 287 285 285 274 263 260 272 281 285 292 295
120 118 123 120 117 115 110 108 104 106 109 110 111 109 108 103 101 99 98 95 91 85 75 70 66 60 59 52 47 45 42 35 24 31 27 25 25 15 335 338 342 348 344 344 342 342 339 336 340 354 349 348 348 344 342 343 338 334 331 329 330 329 325 318 314 313 314 314 311 307 306 302 305 304 298 295 285 277 270 261 263 259 267 272 278
120 119 121 118 118 114 111 110 109 110 112 113 111 110 108 106 104 105 101 103 96 83 79 74 64 57 52 56 51 38 38 33 24 28 26 23 17 11 341 338 348 351 343 341 340 342 338 339 341 354 346 348 344 345 344 341 338 334 329 327 326 328 326 318 315 318 318 314 313 313 313 311 310 314 316 313 295 281 276 272 258 251 252 257 268
119 120 119 119 118 114 112 111 111 112 113 112 113 113 110 107 110 108 107 102 94 93 90 82 78 71 69 60 47 25 39 28 24 22 22 21 16 9 342 344 343 343 343 340 341 339 340 340 343 350 349 344 342 350 346 340 339 333 330 329 326 326 326 322 324 325 322 315 307 309 310 315 314 312 315 315 302 283 273 272 262 257 257 251 260
120 123 122 121 116 115 114 113 115 116 115 114 112 110 112 115 112 111 109 108 108 113 116 111 97 79 61 26 59 43 30 27 20 20 17 20 13 9 347 347 343 348 346 347 343 340 337 338 345 352 349 345 350 351 346 344 342 338 337 335 330 326 320 322 329 325 317 312 306 305 310 316 315 316 316 318 320 306 274 264 263 262 262 266 269
121 124 122 122 120 121 121 119 118 118 117 114 113 115 117 120 121 121 111 102 102 104 96 97 102 116 84 24 37 26 16 26 16 19 12 14 18 4 352 347 351 349 353 349 346 345 336 345 355 355 352 345 352 350 348 346 345 343 342 337 332 327 324 326 325 320 318 317 314 312 311 316 320 322 325 326 326 323 306 268 267 263 264 260 268
128 127 123 125 125 127 127 125 123 121 121 119 118 123 124 122 119 118 113 118 119 121 137 134 145 128 79 55 35 18 334 23 20 17 11 12 19 2 353 350 352 357 356 343 340 352 346 356 356 358 351 349 351 349 350 351 349 347 343 338 335 330 329 331 329 329 329 325 319 306 304 317 330 332 334 331 326 329 331 299 267 264 259 259 263
131 129 129 131 129 130 130 128 126 125 126 126 124 120 115 115 124 129 130 135 132 145 150 133 134 80 80 102 65 34 339 22 24 13 16 15 19 6 347 348 354 354 348 349 358 356 352 357 358 358 355 351 350 350 351 353 353 349 347 347 346 342 337 337 333 332 328 326 323 314 312 328 338 337 336 330 323 333 338 331 300 252 256 256 272
139 136 133 130 128 128 127 125 125 127 126 127 128 128 127 127 122 114 120 121 131 137 120 84 67 32 28 14 48 49 10 11 25 15 18 16 18 5 356 351 1 1 354 356 1 353 344 350 354 359 357 351 349 351 351 355 351 351 349 349 349 345 341 335 334 332 330 330 332 336 337 341 345 342 335 331 327 342 340 332 315 240 245 262 269
133 125 124 125 124 124 126 123 126 129 128 123 119 121 119 114 119 120 115 116 115 105 104 99 84 52 15 31 7 356 31 4 27 17 20 19 21 18 350 8 6 359 359 1 354 344 343 344 348 355 356 352 350 351 351 355 353 348 353 356 350 345 337 332 335 339 331 339 340 340 339 340 340 342 338 335 332 343 343 338 331 280 232 247 261
127 125 123 122 122 120 120 127 126 122 127 128 124 116 117 124 123 122 121 111 109 108 106 101 86 55 13 12 18 357 34 41 12 25 20 22 21 22 356 10 6 4 358 355 348 345 346 349 338 352 352 351 351 351 352 354 355 353 355 355 350 338 336 340 337 340 335 342 344 342 340 342 340 340 339 337 337 341 340 342 348 333 223 228 233
125 124 123 122 121 118 119 115 120 125 126 124 120 117 115 118 123 125 122 123 124 123 125 110 92 58 7 3 23 2 3 39 27 26 23 19 20 22 22 16 13 5 2 354 349 353 346 349 342 350 348 349 351 351 351 354 354 358 353 350 348 350 348 341 337 339 338 343 344 341 341 341 342 342 344 342 337 338 339 342 344 355 354 259 259
125 123 122 122 122 124 128 131 130 130 126 127 128 129 134 129 129 126 126 124 120 124 126 128 107 73 34 360 346 357 354 348 19 21 20 14 13 20 21 20 16 20 12 350 350 347 346 344 345 349 347 349 352 351 351 354 357 356 353 353 354 351 350 349 343 342 347 346 344 342 345 347 343 337 337 342 338 340 335 333 341 355 3 17 22
123 123 123 123 124 128 130 128 127 128 129 129 129 135 138 137 134 136 134 129 128 124 136 134 122 115 86 353 348 340 334 335 351 3 8 12 10 16 16 22 21 18 11 353 358 353 352 353 350 350 351 351 350 350 349 357 357 355 355 355 355 352 352 348 349 347 350 347 346 344 344 344 340 337 332 331 334 337 339 336 345 352 360 4 13
127 126 129 131 130 129 125 128 132 134 137 139 139 142 137 141 132 137 128 126 133 137 154 153 148 167 183 55 305 321 330 338 342 346 2 8 12 13 16 22 22 19 14 5 4 357 354 353 352 354 353 353 350 348 349 355 357 359 358 358 356 352 354 350 350 347 348 350 345 338 334 338 335 329 327 323 326 336 351 355 357 3 2 5 1
131 133 134 136 136 134 127 127 129 134 138 149 151 150 148 147 140 145 140 145 151 150 157 159 175 185 183 233 284 301 323 343 343 337 354 3 13 9 8 24 22 21 16 8 4 357 358 357 354 353 352 355 353 358 356 354 352 358 359 359 356 352 351 350 350 351 352 345 342 337 332 331 336 335 324 326 342 345 350 353 354 1 1 358 357
135 137 141 138 139 140 138 142 140 138 139 138 141 139 135 140 143 149 155 156 163 170 171 172 179 192 181 209 308 331 354 343 349 343 344 359 9 355 352 18 16 13 10 360 358 357 356 359 352 350 351 353 357 357 356 354 354 355 356 356 355 354 353 352 350 344 340 342 341 334 328 327 325 337 348 346 346 348 348 347 354 354 358 360 359
146 148 147 148 148 151 146 146 144 146 154 153 144 137 141 152 153 163 167 172 166 176 175 182 187 188 193 214 327 23 358 348 355 359 345 19 9 357 13 20 10 360 355 358 355 354 352 345 344 347 350 351 354 354 358 357 358 356 351 349 350 346 346 344 340 334 334 341 335 326 327 337 340 345 345 347 347 341 343 350 356 352 357 356 7
139 141 145 145 149 155 153 151 152 150 147 140 139 157 162 166 171 183 208 175 174 167 177 187 189 195 175 170 137 14 9 358 350 342 68 38 23 17 16 18 3 360 7 2 354 347 346 349 356 357 3 359 357 356 354 353 352 352 351 352 347 346 350 351 350 346 341 348 349 342 343 343 343 345 347 350 349 342 342 346 351 356 354 4 9
142 149 153 152 153 152 151 149 152 150 148 147 139 111 77 155 177 167 184 200 206 192 163 179 188 176 179 218 189 150 188 231 307 95 88 52 43 42 44 32 21 14 8 7 4 357 3 359 2 1 1 359 360 357 356 351 349 348 348 348 347 349 350 348 348 343 342 350 350 344 345 345 346 347 348 348 344 348 345 351 347 349 354 1 1
149 152 157 165 165 159 154 153 158 151 151 149 149 144 130 85 126 216 214 156 168 171 196 176 163 175 170 170 249 235 239 265 208 113 86 68 48 58 53 38 26 21 15 6 5 13 6 4 2 3 3 358 360 353 349 349 349 346 344 342 345 349 348 346 347 341 342 348 345 344 345 349 349 346 346 345 342 341 345 347 348 351 356 353 352
160 168 168 162 162 160 159 157 154 153 153 154 155 156 152 150 133 71 88 134 135 131 138 143 165 177 191 193 209 314 63 146 134 126 111 67 61 65 61 41 32 25 21 20 22 12 8 5 2 4 360 359 356 348 348 346 344 343 341 343 345 346 346 344 339 335 347 350 344 344 347 348 348 345 343 340 338 338 343 344 345 347 348 351 350
158 161 162 163 163 161 159 161 163 163 160 161 167 164 160 165 163 179 231 25 80 95 117 119 149 163 191 243 250 202 198 160 140 138 114 83 71 69 60 48 31 21 19 18 24 11 11 6 3 1 359 355 348 346 343 342 341 342 345 343 339 338 336 333 330 341 352 350 343 343 346 344 344 342 342 341 341 337 338 340 340 340 341 344 347
164 161 166 168 164 168 170 170 169 174 174 173 172 172 179 175 174 169 162 191 251 290 278 261 238 251 258 255 269 154 159 149 144 135 117 102 92 79 70 48 32 20 20 10 13 20 8 1 358 356 352 347 343 340 339 338 340 341 340 340 334 330 331 333 342 347 349 354 351 344 344 344 344 343 340 340 339 335 337 339 340 342 345 344 337
162 173 166 162 169 171 173 173 173 171 172 177 176 179 180 179 172 169 175 177 186 193 205 227 238 215 228 212 184 148 155 150 145 136 118 104 116 111 83 59 29 351 3 15 18 17 7 359 349 349 347 343 342 338 334 334 339 342 341 337 335 334 336 341 345 347 354 347 346 344 343 340 342 342 341 339 336 336 335 333 334 331 332 336 337
163 162 170 171 168 171 173 176 174 174 179 183 183 181 173 167 175 187 188 187 184 190 206 220 212 263 264 235 196 155 157 151 148 137 119 107 112 163 67 42 24 8 357 360 7 8 356 355 344 338 342 335 333 333 337 336 339 339 340 338 336 336 337 341 345 345 348 344 342 339 340 341 342 341 338 335 335 332 329 330 329 327 326 333 334
165 166 170 177 176 172 175 175 178 181 180 174 171 169 170 177 182 179 182 186 190 197 200 207 218 251 216 265 178 152 158 152 149 134 117 105 98 99 92 89 22 329 339 349 359 357 351 349 342 331 337 332 332 337 335 336 337 337 337 338 337 340 343 340 338 339 342 345 344 344 343 340 340 340 340 335 333 336 334 330 327 328 330 323 326
172 173 177 175 170 169 169 178 182 175 173 172 175 173 173 178 183 181 184 190 193 183 193 208 204 200 195 213 166 151 150 142 131 106 95 94 86 63 90 126 206 277 317 335 357 346 339 333 337 333 323 329 334 334 335 337 340 339 339 336 340 338 339 336 340 345 344 344 344 342 340 339 339 337 335 334 333 334 334 332 332 331 330 332 337
181 182 174 168 170 171 173 171 172 174 178 174 173 175 182 181 180 186 191 189 189 192 197 191 195 197 198 170 160 149 144 170 192 206 179 186 139 163 200 176 208 248 279 305 335 344 336 331 331 321 318 333 334 334 335 336 338 340 338 338 340 343 347 347 345 345 343 342 338 338 335 335 336 334 331 330 332 334 332 330 331 330 329 333 340
173 174 176 170 167 172 169 175 172 178 180 176 180 185 182 184 187 188 184 183 195 194 188 191 200 205 182 161 163 156 181 194 202 191 182 193 204 208 205 205 197 232 277 316 335 343 329 320 321 316 318 328 335 334 336 334 338 335 338 344 342 346 345 344 344 339 338 337 333 332 335 334 332 328 330 333 332 330 329 328 327 326 325 325 333
172 172 172 179 176 167 172 172 180 186 181 185 180 182 193 191 190 186 184 192 192 189 191 199 203 202 172 189 181 175 184 194 187 186 189 185 196 210 214 206 203 214 232 263 301 332 318 309 314 311 313 327 332 334 336 336 337 339 340 339 342 344 341 344 342 336 335 334 333 332 331 331 332 335 333 331 325 327 330 326 327 327 327 329 338
168 168 175 178 170 172 175 187 190 184 181 181 181 189 189 189 187 184 190 194 195 190 187 199 204 192 192 192 180 181 186 195 170 178 180 187 195 214 218 208 199 210 232 244 274 295 307 300 300 302 310 326 335 339 336 338 340 339 339 343 345 344 342 339 337 334 335 331 329 330 331 328 327 325 319 318 325 332 333 334 333 332 331 335 342
169 173 175 172 176 179 187 189 178 178 183 187 193 190 187 183 186 188 191 196 194 188 190 192 195 179 192 199 186 180 181 174 183 183 181 188 198 210 213 212 194 196 212 230 235 239 257 272 280 279 279 317 326 337 338 335 335 335 338 345 348 345 339 335 336 337 334 330 327 327 326 325 326 325 326 326 331 334 336 334 336 340 336 338 344
169 171 174 179 183 184 185 173 181 189 190 189 183 183 184 186 187 187 191 194 193 194 191 190 177 175 181 183 175 172 181 181 182 185 185 187 194 205 212 209 199 192 208 196 191 198 221 234 257 256 263 304 325 333 334 337 336 336 339 336 345 344 340 339 339 338 333 329 325 324 323 324 322 321 326 334 338 339 338 340 343 345 342 344 347
169 170 174 180 183 182 186 187 188 185 180 174 185 188 186 186 189 194 193 195 196 192 190 186 174 173 171 173 174 179 183 185 185 183 190 189 192 200 203 204 194 194 198 187 171 187 198 215 220 226 293 316 326 332 340 345 341 334 343 338 344 345 344 341 335 329 325 324 321 320 321 322 325 328 332 336 339 339 339 341 342 343 344 346 348
173 174 176 181 181 185 184 187 185 181 180 186 186 188 191 192 195 193 194 196 191 190 189 182 179 179 182 177 178 182 185 180 189 193 188 187 189 194 197 200 195 192 197 180 174 180 195 193 182 181 292 317 325 335 338 343 340 340 348 348 344 343 336 331 327 323 323 324 322 318 315 317 325 330 331 334 340 344 342 344 349 352 349 343 343
173 176 179 182 185 186 186 181 179 186 188 189 190 190 190 195 195 194 196 194 191 191 186 182 179 185 184 183 181 188 181 183 188 188 193 187 186 188 190 194 191 193 192 179 174 182 179 177 176 165 226 323 327 331 337 340 336 339 352 347 354 346 343 335 326 322 319 320 319 319 320 323 329 336 338 341 343 345 345 352 352 352 352 349 344
179 179 182 185 183 183 185 181 188 187 189 191 193 194 193 190 192 195 194 192 193 194 191 184 185 185 183 188 187 182 181 186 186 189 185 184 186 185 185 186 193 193 190 172 182 177 181 171 164 163 158 291 320 327 339 334 334 335 341 360 5 349 330 327 329 328 333 323 317 326 328 331 338 341 340 344 348 349 351 355 353 354 356 355 347
181 181 181 183 188 189 186 186 186 187 192 191 190 193 192 191 197 196 194 193 194 195 189 186 185 184 186 189 181 181 177 180 185 184 186 187 183 183 184 187 185 187 184 190 178 180 175 168 162 165 161 174 316 329 332 336 330 334 335 350 344 336 327 327 332 336 318 313 318 319 325 338 342 346 343 345 350 352 356 355 355 353 359 360 353
185 185 184 186 190 195 191 188 187 190 189 188 189 194 192 193 195 197 195 193 195 195 192 189 189 185 183 180 178 181 177 185 187 186 183 185 184 181 180 183 185 183 188 189 181 177 171 167 167 168 170 175 252 315 331 335 334 333 336 338 335 330 326 328 323 329 334 335 325 328 337 346 346 351 350 351 352 358 0 357 353 355 1 2 359
187 187 188 189 192 191 185 187 190 191 188 189 191 192 191 195 200 196 191 194 197 198 193 189 185 185 188 185 185 178 183 188 183 178 181 182 182 179 181 181 184 185 188 182 179 173 170 168 168 168 163 165 197 301 323 327 341 342 331 326 332 329 330 335 339 335 335 332 328 336 342 353 352 352 355 359 357 359 358 356 359 2 5 4 1